Location: Godiavel Galaoual
(15.2485°N, 12.6604°W)
Time: 20:35:51
(UTC+00:00)

CUBEBUG 2 - Visible Passes

Search period start: 23 July 2021 00:00
Search period end: 02 August 2021 00:00
Orbit: 584 x 698 km, 97.7° (Epoch: 23 July)

Date Brightness Start Highest point End Pass type
(mag) Time Alt. Az. Time Alt. Az. Time Alt. Az.
23 Jul ? 04:48:24 10° NNW 04:50:37 25° NW 04:50:37 25° NW visible
24 Jul ? 03:36:11 10° NE 03:37:00 14° NE 03:37:00 14° NE visible
24 Jul ? 05:13:20 10° NW 05:14:37 14° WNW 05:14:37 14° WNW visible
25 Jul ? 03:59:10 10° NNE 04:00:59 24° NE 04:00:59 24° NE visible
26 Jul ? 04:22:45 10° N 04:24:58 31° N 04:24:58 31° N visible
27 Jul ? 04:46:52 10° NNW 04:48:57 24° NW 04:48:57 24° NW visible
28 Jul ? 03:34:42 10° NE 03:35:21 13° NE 03:35:21 13° NE visible
28 Jul ? 05:11:43 10° NW 05:12:56 14° NW 05:12:56 14° NW visible
29 Jul ? 03:57:40 10° NNE 03:59:19 22° NE 03:59:19 22° NE visible
30 Jul ? 04:21:14 10° N 04:23:18 28° N 04:23:18 28° N visible
31 Jul ? 04:45:18 10° NNW 04:47:17 23° NNW 04:47:17 23° NNW visible
01 Aug ? 03:33:12 10° NE 03:33:40 12° NE 03:33:40 12° NE visible
01 Aug ? 05:10:05 10° NW 05:11:15 14° NW 05:11:15 14° NW visible
